Santuari del Far - Susqueda





Hora UTC 10:00
Temperatura 8.7 ºC
Humitat 60.0 %
Pressió 1017.2 hPa
Pluja 0.0 mm
Velocitat vent 8.0 km/h
Direcció vent N

Dades diàries 2021-04-19



Hora UTC (hivern +1h; estiu +2h)
Temperatura (ºC) Humitat (%) Pressió (hPa) Velocitat vent (km/h) Precipitació (mm)
Hora UTC Aire Humitat Pressió Vel. Dir. Vel. Max Dir. Intent. màx 5 min.
00:05 4.1 66.0 1018.3 0.0 N 0.0 0.0
00:10 3.8 66.0 1018.2 0.0 N 1.6 0.0
00:15 3.7 67.0 1018.3 0.0 N 1.6 0.0
00:20 3.4 68.0 1018.3 0.0 N 0.0 0.0
00:25 3.2 69.0 1018.1 1.6 N 3.2 0.0
00:30 3.1 71.0 1018.1 1.6 N 3.2 0.0
00:35 3.2 72.0 1018.0 0.0 N 3.2 0.0
00:40 3.1 72.0 1017.9 0.0 N 1.6 0.0
00:45 3.0 73.0 1017.8 0.0 N 3.2 0.0
00:50 2.8 73.0 1017.8 0.0 N 3.2 0.0
00:55 2.8 74.0 1017.8 3.2 N 3.2 0.0
01:00 2.8 74.0 1017.7 4.8 N 9.7 0.0
01:05 3.5 72.0 1017.6 4.8 N 9.7 0.0
01:10 3.9 70.0 1017.7 4.8 N 8.0 0.0
01:15 4.2 68.0 1017.5 3.2 N 9.7 0.0
01:20 4.3 67.0 1017.5 4.8 N 9.7 0.0
01:25 4.3 66.0 1017.5 6.4 N 8.0 0.0
01:30 4.3 65.0 1017.6 3.2 N 8.0 0.0
01:35 4.2 65.0 1017.7 1.6 N 6.4 0.0
01:40 4.1 66.0 1017.6 1.6 N 4.8 0.0
01:45 4.1 66.0 1017.6 1.6 N 3.2 0.0
01:50 3.9 66.0 1017.4 1.6 N 3.2 0.0
01:55 4.0 66.0 1017.4 0.0 N 3.2 0.0
02:00 4.1 66.0 1017.4 0.0 N 3.2 0.0
02:05 4.0 66.0 1017.5 1.6 N 3.2 0.0
02:10 3.9 66.0 1017.4 1.6 N 3.2 0.0
02:15 3.8 67.0 1017.4 1.6 N 3.2 0.0
02:20 3.7 68.0 1017.5 1.6 N 4.8 0.0
02:25 3.6 68.0 1017.5 1.6 N 4.8 0.0
02:30 3.6 68.0 1017.4 0.0 N 4.8 0.0
02:35 3.7 68.0 1017.4 1.6 N 4.8 0.0
02:40 3.6 68.0 1017.5 3.2 N 4.8 0.0
02:45 3.7 68.0 1017.4 3.2 N 4.8 0.0
02:50 3.8 68.0 1017.4 1.6 N 4.8 0.0
02:55 3.9 67.0 1017.4 0.0 N 4.8 0.0
03:00 3.9 67.0 1017.4 0.0 N 3.2 0.0
03:05 4.1 67.0 1017.4 1.6 N 1.6 0.0
03:10 4.2 66.0 1017.4 1.6 N 3.2 0.0
03:15 4.2 67.0 1017.2 3.2 N 4.8 0.0
03:20 4.2 67.0 1017.2 4.8 N 6.4 0.0
03:25 4.2 67.0 1017.1 6.4 N 8.0 0.0
03:30 4.2 67.0 1017.1 6.4 N 8.0 0.0
03:35 4.3 67.0 1017.1 6.4 N 8.0 0.0
03:40 4.4 66.0 1017.1 4.8 N 8.0 0.0
03:45 4.4 66.0 1017.0 1.6 N 6.4 0.0
03:50 4.3 66.0 1016.9 1.6 N 3.2 0.0
03:55 4.2 65.0 1016.9 0.0 N 3.2 0.0
04:00 4.1 66.0 1017.0 0.0 N 1.6 0.0
04:05 4.0 66.0 1016.9 3.2 N 3.2 0.0
04:10 3.9 66.0 1016.9 4.8 N 4.8 0.0
04:15 4.0 66.0 1016.8 3.2 N 4.8 0.0
04:20 4.1 65.0 1016.8 6.4 N 8.0 0.0
04:25 4.3 66.0 1016.8 6.4 N 11.3 0.0
04:30 4.2 67.0 1016.7 9.7 N 11.3 0.0
04:35 4.1 67.0 1016.8 8.0 N 11.3 0.0
04:40 4.1 67.0 1016.8 4.8 N 11.3 0.0
04:45 4.0 67.0 1016.7 6.4 N 9.7 0.0
04:50 3.9 68.0 1016.7 4.8 N 8.0 0.0
04:55 3.9 68.0 1016.8 4.8 N 8.0 0.0
05:00 3.9 67.0 1016.8 0.0 N 8.0 0.0
05:05 3.9 67.0 1016.8 3.2 N 8.0 0.0
05:10 3.9 68.0 1016.8 3.2 N 8.0 0.0
05:15 3.8 68.0 1017.0 1.6 N 8.0 0.0
05:20 3.7 69.0 1017.0 0.0 N 9.7 0.0
05:25 3.6 70.0 1016.9 4.8 N 11.3 0.0
05:30 3.6 69.0 1017.0 6.4 N 9.7 0.0
05:35 3.6 70.0 1017.0 9.7 N 12.9 0.0
05:40 3.6 70.0 1016.9 3.2 N 12.9 0.0
05:45 3.7 70.0 1017.0 6.4 N 11.3 0.0
05:50 3.7 70.0 1017.0 6.4 N 11.3 0.0
05:55 3.7 70.0 1017.0 8.0 N 16.1 0.0
06:00 3.8 70.0 1017.1 3.2 N 16.1 0.0
06:05 3.9 69.0 1017.2 4.8 N 11.3 0.0
06:10 4.0 69.0 1017.1 4.8 N 12.9 0.0
06:15 4.0 69.0 1017.1 4.8 N 12.9 0.0
06:20 4.2 69.0 1017.0 8.0 N 11.3 0.0
06:25 4.4 68.0 1017.0 3.2 N 11.3 0.0
06:30 4.5 68.0 1017.1 3.2 N 11.3 0.0
06:35 4.6 68.0 1017.2 6.4 N 11.3 0.0
06:40 4.9 67.0 1017.2 0.0 N 12.9 0.0
06:45 5.2 67.0 1017.3 4.8 N 12.9 0.0
06:50 5.4 65.0 1017.3 9.7 N 11.3 0.0
06:55 5.6 65.0 1017.2 6.4 N 12.9 0.0
07:00 5.6 65.0 1017.3 6.4 N 16.1 0.0
07:05 5.7 65.0 1017.3 4.8 N 9.7 0.0
07:10 5.7 65.0 1017.3 3.2 N 9.7 0.0
07:15 5.7 66.0 1017.4 6.4 N 12.9 0.0
07:20 5.6 66.0 1017.4 4.8 N 12.9 0.0
07:25 5.7 66.0 1017.4 3.2 N 9.7 0.0
07:30 5.7 65.0 1017.3 4.8 N 9.7 0.0
07:35 5.8 65.0 1017.2 6.4 N 11.3 0.0
07:40 5.9 65.0 1017.4 4.8 N 11.3 0.0
07:45 6.1 64.0 1017.4 3.2 N 11.3 0.0
07:50 6.3 64.0 1017.3 1.6 N 11.3 0.0
07:55 6.4 65.0 1017.2 6.4 N 12.9 0.0
08:00 6.4 65.0 1017.1 8.0 N 12.9 0.0
08:05 6.6 64.0 1017.4 9.7 N 12.9 0.0
08:10 6.6 64.0 1017.3 3.2 N 12.9 0.0
08:15 6.7 64.0 1017.3 3.2 N 11.3 0.0
08:20 6.7 63.0 1017.3 9.7 N 11.3 0.0
08:25 6.7 63.0 1017.5 9.7 N 14.5 0.0
08:30 6.8 63.0 1017.5 0.0 N 14.5 0.0
08:35 7.1 63.0 1017.5 3.2 N 12.9 0.0
08:40 7.2 62.0 1017.6 3.2 N 12.9 0.0
08:45 7.3 62.0 1017.5 4.8 N 12.9 0.0
08:50 7.3 62.0 1017.5 8.0 N 9.7 0.0
08:55 7.4 62.0 1017.6 1.6 N 22.5 0.0
09:00 7.5 62.0 1017.4 1.6 N 22.5 0.0
09:05 7.7 63.0 1017.5 4.8 N 16.1 0.0
09:10 7.7 62.0 1017.4 6.4 N 14.5 0.0
09:15 7.7 60.0 1017.6 3.2 N 14.5 0.0
09:20 7.7 60.0 1017.5 6.4 N 14.5 0.0
09:25 7.8 61.0 1017.4 8.0 N 11.3 0.0
09:30 8.1 61.0 1017.5 3.2 N 11.3 0.0
09:35 8.2 58.0 1017.3 3.2 N 11.3 0.0
09:40 8.1 59.0 1017.5 12.9 N 14.5 0.0
09:45 8.1 61.0 1017.3 4.8 N 14.5 0.0
09:50 8.3 61.0 1017.3 11.3 N 11.3 0.0
09:55 8.4 61.0 1017.2 4.8 N 11.3 0.0
10:00 8.7 60.0 1017.2 8.0 N 12.9 0.0
Màxima 8.7 74.0 1018.3 12.9 N 22.5 0.0
Mínima 2.7 58.0 1016.7
Total 0.0